LVMGN SARI-SARE

Flight info

Callsign LVMGN
Flight time 1h 3m
Altitude 12000
Route IGU DCT SIS
Aircraft SH33/M-SDFGRY/S

Departure

Time 2026-04-29 17:01
Airport Cataratas Del Iguazú International Airport (SARI)

Arrival

Time 2026-04-29 18:04
Airport Resistencia International Airport (SARE)
Time Latitude Longitude Altitude Speed Heading
2026-04-29 16:50 -25.73207 -54.47728 920 ft 0 kts 25°
2026-04-29 16:55 -25.73206 -54.47728 920 ft 0 kts 25°
2026-04-29 16:55 -25.73204 -54.47727 920 ft 0 kts 12°
2026-04-29 16:55 -25.73202 -54.47727 920 ft 1 kts 346°
2026-04-29 16:55 -25.73206 -54.47764 920 ft 5 kts 257°
2026-04-29 16:56 -25.73215 -54.47816 920 ft 8 kts 264°
2026-04-29 16:56 -25.73221 -54.47889 920 ft 10 kts 265°
2026-04-29 16:56 -25.73227 -54.47982 920 ft 13 kts 265°
2026-04-29 16:56 -25.73235 -54.48092 920 ft 15 kts 264°
2026-04-29 16:57 -25.73244 -54.48223 920 ft 17 kts 266°
2026-04-29 16:57 -25.73255 -54.48358 920 ft 16 kts 268°
2026-04-29 16:57 -25.73240 -54.48478 920 ft 15 kts 289°
2026-04-29 16:57 -25.73203 -54.48582 920 ft 13 kts 294°
2026-04-29 16:58 -25.73190 -54.48613 920 ft 13 kts 295°
2026-04-29 16:58 -25.73139 -54.48726 920 ft 6 kts 302°
2026-04-29 16:58 -25.73104 -54.48765 920 ft 8 kts 309°
2026-04-29 16:58 -25.73116 -54.48813 920 ft 8 kts 169°
2026-04-29 16:59 -25.73138 -54.48758 920 ft 7 kts 108°
2026-04-29 16:59 -25.73148 -54.48734 920 ft 0 kts 113°
2026-04-29 17:00 -25.73174 -54.48670 920 ft 38 kts 115°
2026-04-29 17:00 -25.73390 -54.48163 925 ft 104 kts 114°
2026-04-29 17:00 -25.73698 -54.47365 1260 ft 121 kts 110°
2026-04-29 17:01 -25.73905 -54.46750 1489 ft 134 kts 109°
2026-04-29 17:01 -25.74009 -54.46414 1610 ft 139 kts 108°
2026-04-29 17:01 -25.74855 -54.44209 2190 ft 170 kts 113°
2026-04-29 17:01 -25.75179 -54.43388 2381 ft 176 kts 113°
2026-04-29 17:02 -25.75688 -54.42137 2653 ft 183 kts 118°
2026-04-29 17:02 -25.79345 -54.43386 3464 ft 241 kts 261°
2026-04-29 17:03 -25.79289 -54.45274 3752 ft 251 kts 276°
2026-04-29 17:03 -25.79098 -54.47201 4124 ft 255 kts 277°
2026-04-29 17:03 -25.78899 -54.49143 4458 ft 253 kts 277°
2026-04-29 17:03 -25.78719 -54.51086 4731 ft 252 kts 273°
2026-04-29 17:04 -25.78849 -54.53033 5008 ft 251 kts 260°
2026-04-29 17:04 -25.79277 -54.54908 5283 ft 251 kts 253°
2026-04-29 17:04 -25.79844 -54.56728 5557 ft 250 kts 250°
2026-04-29 17:04 -25.80475 -54.58517 5832 ft 249 kts 248°
2026-04-29 17:05 -25.81128 -54.60272 6103 ft 249 kts 248°
2026-04-29 17:05 -25.81801 -54.62042 6379 ft 248 kts 248°
2026-04-29 17:05 -25.82476 -54.63797 6653 ft 248 kts 247°
2026-04-29 17:05 -25.82697 -54.64369 6743 ft 247 kts 247°
2026-04-29 17:06 -25.83826 -54.67291 7202 ft 247 kts 248°
2026-04-29 17:06 -25.84500 -54.69030 7476 ft 246 kts 248°
2026-04-29 17:06 -25.85174 -54.70773 7751 ft 246 kts 248°
2026-04-29 17:06 -25.85799 -54.72387 8006 ft 245 kts 248°
2026-04-29 17:07 -25.86477 -54.74141 8285 ft 252 kts 248°
2026-04-29 17:07 -25.86950 -54.75364 8476 ft 260 kts 248°
2026-04-29 17:07 -25.87915 -54.77862 8849 ft 272 kts 248°
2026-04-29 17:07 -25.88676 -54.79829 9132 ft 278 kts 248°
2026-04-29 17:08 -25.89444 -54.81817 9490 ft 281 kts 248°
2026-04-29 17:08 -25.90218 -54.83823 9852 ft 282 kts 248°
2026-04-29 17:08 -25.90982 -54.85803 10200 ft 284 kts 248°
2026-04-29 17:08 -25.91762 -54.87825 10546 ft 285 kts 248°
2026-04-29 17:09 -25.92547 -54.89861 10874 ft 286 kts 248°
2026-04-29 17:09 -25.93321 -54.91871 11191 ft 287 kts 248°
2026-04-29 17:09 -25.94104 -54.93903 11503 ft 288 kts 248°
2026-04-29 17:09 -25.94890 -54.95945 11806 ft 289 kts 248°
2026-04-29 17:10 -25.95684 -54.98009 12064 ft 292 kts 248°
2026-04-29 17:10 -25.96480 -55.00082 12282 ft 294 kts 249°
2026-04-29 17:10 -25.97284 -55.02173 12504 ft 297 kts 249°
2026-04-29 17:10 -25.98106 -55.04313 12674 ft 300 kts 249°
2026-04-29 17:11 -25.98917 -55.06426 12867 ft 302 kts 249°
2026-04-29 17:11 -25.99738 -55.08564 13151 ft 299 kts 249°
2026-04-29 17:11 -26.00567 -55.10726 13324 ft 296 kts 249°
2026-04-29 17:11 -26.01364 -55.12795 12703 ft 311 kts 249°
2026-04-29 17:12 -26.02187 -55.14950 12932 ft 283 kts 249°
2026-04-29 17:12 -26.02914 -55.16840 13583 ft 251 kts 250°
2026-04-29 17:12 -26.03552 -55.18500 14177 ft 226 kts 251°
2026-04-29 17:12 -26.03956 -55.19561 14375 ft 222 kts 251°
2026-04-29 17:13 -26.04772 -55.21708 14785 ft 235 kts 251°
2026-04-29 17:13 -26.05425 -55.23425 15098 ft 244 kts 251°
2026-04-29 17:13 -26.06091 -55.25169 15407 ft 251 kts 252°
2026-04-29 17:13 -26.06790 -55.26998 15720 ft 257 kts 252°
2026-04-29 17:14 -26.07488 -55.28825 16026 ft 262 kts 252°
2026-04-29 17:14 -26.08204 -55.30702 16334 ft 266 kts 252°
2026-04-29 17:14 -26.08928 -55.32599 16641 ft 269 kts 252°
2026-04-29 17:14 -26.09669 -55.34542 16952 ft 272 kts 252°
2026-04-29 17:15 -26.10407 -55.36476 17253 ft 273 kts 253°
2026-04-29 17:15 -26.11143 -55.38409 17545 ft 275 kts 253°
2026-04-29 17:15 -26.11890 -55.40369 17840 ft 276 kts 253°
2026-04-29 17:15 -26.12641 -55.42344 18135 ft 276 kts 253°
2026-04-29 17:16 -26.13381 -55.44289 18426 ft 276 kts 253°
2026-04-29 17:16 -26.14126 -55.46247 18718 ft 276 kts 254°
2026-04-29 17:16 -26.14871 -55.48210 19010 ft 276 kts 254°
2026-04-29 17:16 -26.15623 -55.50189 19305 ft 275 kts 254°
2026-04-29 17:17 -26.16361 -55.52132 19594 ft 275 kts 255°
2026-04-29 17:17 -26.17103 -55.54087 19886 ft 274 kts 255°
2026-04-29 17:17 -26.17844 -55.56041 20178 ft 273 kts 255°
2026-04-29 17:17 -26.18578 -55.57979 20469 ft 272 kts 255°
2026-04-29 17:18 -26.19312 -55.59916 20760 ft 271 kts 256°
2026-04-29 17:18 -26.20035 -55.61825 21048 ft 270 kts 256°
2026-04-29 17:18 -26.20762 -55.63746 21338 ft 268 kts 256°
2026-04-29 17:18 -26.21480 -55.65642 21628 ft 267 kts 257°
2026-04-29 17:19 -26.22205 -55.67559 21929 ft 265 kts 257°
2026-04-29 17:19 -26.22910 -55.69425 22223 ft 264 kts 257°
2026-04-29 17:19 -26.23618 -55.71300 22520 ft 262 kts 257°
2026-04-29 17:19 -26.24324 -55.73168 22818 ft 260 kts 258°
2026-04-29 17:20 -26.25017 -55.75004 23113 ft 258 kts 258°
2026-04-29 17:20 -26.25714 -55.76850 23412 ft 256 kts 258°
2026-04-29 17:20 -26.26353 -55.78673 23707 ft 252 kts 261°
2026-04-29 17:20 -26.26931 -55.80504 23995 ft 249 kts 262°
2026-04-29 17:21 -26.27500 -55.82357 24068 ft 256 kts 262°
2026-04-29 17:21 -26.28080 -55.84257 24074 ft 264 kts 262°
2026-04-29 17:21 -26.28277 -55.84904 24075 ft 267 kts 262°
2026-04-29 17:22 -26.31212 -55.94536 24073 ft 289 kts 261°
2026-04-29 17:22 -26.31863 -55.96677 24073 ft 292 kts 261°
2026-04-29 17:23 -26.32515 -55.98825 24073 ft 294 kts 261°
2026-04-29 17:23 -26.33169 -56.00979 24072 ft 296 kts 261°
2026-04-29 17:23 -26.33831 -56.03161 24072 ft 297 kts 261°
2026-04-29 17:23 -26.34486 -56.05323 24072 ft 298 kts 261°
2026-04-29 17:24 -26.35150 -56.07516 24072 ft 299 kts 261°
2026-04-29 17:24 -26.35819 -56.09725 24072 ft 300 kts 261°
2026-04-29 17:24 -26.36486 -56.11929 24072 ft 300 kts 261°
2026-04-29 17:24 -26.36933 -56.13409 24071 ft 301 kts 261°
2026-04-29 17:25 -26.37598 -56.15608 24071 ft 301 kts 261°
2026-04-29 17:25 -26.38487 -56.18552 24071 ft 302 kts 261°
2026-04-29 17:25 -26.39156 -56.20772 24071 ft 302 kts 261°
2026-04-29 17:25 -26.39823 -56.22982 24071 ft 302 kts 261°
2026-04-29 17:26 -26.40266 -56.24451 24071 ft 302 kts 261°
2026-04-29 17:26 -26.40938 -56.26684 24071 ft 302 kts 261°
2026-04-29 17:26 -26.41825 -56.29631 24071 ft 302 kts 261°
2026-04-29 17:26 -26.42053 -56.30389 24071 ft 302 kts 261°
2026-04-29 17:27 -26.43166 -56.34091 24071 ft 303 kts 261°
2026-04-29 17:27 -26.43833 -56.36309 24070 ft 303 kts 261°
2026-04-29 17:27 -26.44496 -56.38520 24070 ft 303 kts 261°
2026-04-29 17:27 -26.45161 -56.40737 24070 ft 303 kts 261°
2026-04-29 17:28 -26.45840 -56.43002 24070 ft 303 kts 261°
2026-04-29 17:28 -26.46505 -56.45219 24070 ft 303 kts 261°
2026-04-29 17:28 -26.47173 -56.47450 24070 ft 303 kts 261°
2026-04-29 17:28 -26.47835 -56.49664 24070 ft 303 kts 261°
2026-04-29 17:29 -26.48500 -56.51885 24070 ft 303 kts 261°
2026-04-29 17:29 -26.49161 -56.54100 24070 ft 303 kts 261°
2026-04-29 17:29 -26.49827 -56.56329 24070 ft 303 kts 261°
2026-04-29 17:29 -26.50271 -56.57817 24070 ft 303 kts 261°
2026-04-29 17:30 -26.51162 -56.60802 24070 ft 303 kts 261°
2026-04-29 17:30 -26.51827 -56.63033 24070 ft 303 kts 261°
2026-04-29 17:30 -26.52486 -56.65245 24070 ft 303 kts 261°
2026-04-29 17:30 -26.53145 -56.67461 24075 ft 303 kts 261°
2026-04-29 17:31 -26.53815 -56.69710 24075 ft 303 kts 261°
2026-04-29 17:31 -26.54474 -56.71927 24075 ft 304 kts 261°
2026-04-29 17:31 -26.55143 -56.74179 24075 ft 304 kts 261°
2026-04-29 17:31 -26.55807 -56.76415 24075 ft 304 kts 261°
2026-04-29 17:32 -26.56467 -56.78639 24076 ft 304 kts 261°
2026-04-29 17:32 -26.57133 -56.80883 24076 ft 304 kts 261°
2026-04-29 17:32 -26.57793 -56.83112 24076 ft 304 kts 261°
2026-04-29 17:32 -26.58463 -56.85372 24076 ft 304 kts 261°
2026-04-29 17:33 -26.59120 -56.87593 24076 ft 304 kts 261°
2026-04-29 17:33 -26.59788 -56.89852 24075 ft 304 kts 261°
2026-04-29 17:33 -26.60226 -56.91332 24073 ft 304 kts 261°
2026-04-29 17:33 -26.61114 -56.94337 24070 ft 305 kts 261°
2026-04-29 17:34 -26.61779 -56.96592 24067 ft 305 kts 261°
2026-04-29 17:34 -26.62445 -56.98850 24065 ft 305 kts 261°
2026-04-29 17:34 -26.63105 -57.01088 24062 ft 306 kts 261°
2026-04-29 17:34 -26.63767 -57.03332 24059 ft 306 kts 261°
2026-04-29 17:35 -26.64657 -57.06355 24056 ft 306 kts 261°
2026-04-29 17:35 -26.65767 -57.10130 24052 ft 307 kts 261°
2026-04-29 17:35 -26.66432 -57.12392 24049 ft 307 kts 261°
2026-04-29 17:36 -26.67096 -57.14653 24048 ft 308 kts 261°
2026-04-29 17:36 -26.67758 -57.16909 24048 ft 308 kts 261°
2026-04-29 17:36 -26.68429 -57.19196 24048 ft 308 kts 261°
2026-04-29 17:36 -26.69093 -57.21462 24048 ft 308 kts 261°
2026-04-29 17:37 -26.69765 -57.23753 24048 ft 308 kts 261°
2026-04-29 17:37 -26.70425 -57.26009 24048 ft 308 kts 261°
2026-04-29 17:37 -26.71092 -57.28288 24048 ft 308 kts 261°
2026-04-29 17:37 -26.71756 -57.30561 24048 ft 309 kts 261°
2026-04-29 17:38 -26.72421 -57.32835 24048 ft 309 kts 261°
2026-04-29 17:38 -26.73085 -57.35111 24047 ft 309 kts 261°
2026-04-29 17:38 -26.73750 -57.37390 24047 ft 309 kts 261°
2026-04-29 17:38 -26.74421 -57.39690 24047 ft 309 kts 261°
2026-04-29 17:39 -26.75084 -57.41966 24047 ft 309 kts 261°
2026-04-29 17:39 -26.75752 -57.44259 24047 ft 309 kts 261°
2026-04-29 17:39 -26.76412 -57.46529 24047 ft 309 kts 261°
2026-04-29 17:39 -26.77076 -57.48811 24047 ft 309 kts 261°
2026-04-29 17:40 -26.77737 -57.51087 24047 ft 309 kts 261°
2026-04-29 17:40 -26.78400 -57.53368 24047 ft 309 kts 261°
2026-04-29 17:40 -26.79063 -57.55654 24047 ft 309 kts 261°
2026-04-29 17:40 -26.79726 -57.57941 24047 ft 309 kts 261°
2026-04-29 17:41 -26.80384 -57.60212 24047 ft 309 kts 261°
2026-04-29 17:41 -26.81044 -57.62490 24047 ft 309 kts 261°
2026-04-29 17:41 -26.81712 -57.64798 24047 ft 309 kts 261°
2026-04-29 17:41 -26.82366 -57.67058 24052 ft 309 kts 261°
2026-04-29 17:42 -26.83030 -57.69355 24052 ft 309 kts 261°
2026-04-29 17:42 -26.83689 -57.71637 24052 ft 309 kts 261°
2026-04-29 17:42 -26.84354 -57.73941 24052 ft 310 kts 261°
2026-04-29 17:42 -26.85008 -57.76206 24052 ft 310 kts 261°
2026-04-29 17:43 -26.85674 -57.78517 24052 ft 310 kts 261°
2026-04-29 17:43 -26.86335 -57.80813 24052 ft 310 kts 261°
2026-04-29 17:43 -26.86993 -57.83097 24052 ft 310 kts 261°
2026-04-29 17:43 -26.87653 -57.85386 24051 ft 305 kts 261°
2026-04-29 17:44 -26.88298 -57.87633 23717 ft 306 kts 261°
2026-04-29 17:44 -26.88950 -57.89904 23323 ft 305 kts 261°
2026-04-29 17:44 -26.89600 -57.92170 22929 ft 304 kts 261°
2026-04-29 17:44 -26.90247 -57.94424 22536 ft 304 kts 260°
2026-04-29 17:45 -26.90893 -57.96679 22144 ft 304 kts 260°
2026-04-29 17:45 -26.91534 -57.98917 21754 ft 305 kts 260°
2026-04-29 17:45 -26.92181 -58.01177 21361 ft 305 kts 259°
2026-04-29 17:45 -26.92823 -58.03419 20971 ft 306 kts 259°
2026-04-29 17:46 -26.93472 -58.05689 20577 ft 306 kts 259°
2026-04-29 17:46 -26.94122 -58.07963 20183 ft 307 kts 259°
2026-04-29 17:46 -26.94769 -58.10229 19791 ft 307 kts 258°
2026-04-29 17:46 -26.95416 -58.12496 19399 ft 307 kts 258°
2026-04-29 17:47 -26.96067 -58.14778 19005 ft 308 kts 258°
2026-04-29 17:47 -26.96718 -58.17061 18603 ft 309 kts 258°
2026-04-29 17:47 -26.97374 -58.19367 18182 ft 309 kts 257°
2026-04-29 17:47 -26.98027 -58.21660 17763 ft 310 kts 257°
2026-04-29 17:48 -26.98679 -58.23954 17346 ft 311 kts 257°
2026-04-29 17:48 -26.99332 -58.26251 16928 ft 311 kts 257°
2026-04-29 17:48 -26.99982 -58.28539 16511 ft 309 kts 256°
2026-04-29 17:48 -27.00631 -58.30821 16090 ft 306 kts 256°
2026-04-29 17:49 -27.01274 -58.33091 15668 ft 304 kts 256°
2026-04-29 17:49 -27.01911 -58.35337 15248 ft 303 kts 256°
2026-04-29 17:49 -27.02546 -58.37577 14826 ft 302 kts 255°
2026-04-29 17:49 -27.03177 -58.39808 14406 ft 301 kts 255°
2026-04-29 17:50 -27.03807 -58.42036 13985 ft 300 kts 255°
2026-04-29 17:50 -27.04433 -58.44250 13565 ft 299 kts 255°
2026-04-29 17:50 -27.05063 -58.46482 13141 ft 298 kts 255°
2026-04-29 17:50 -27.05682 -58.48673 12720 ft 293 kts 254°
2026-04-29 17:51 -27.06296 -58.50848 12294 ft 289 kts 254°
2026-04-29 17:51 -27.06897 -58.52982 11871 ft 286 kts 254°
2026-04-29 17:51 -27.07492 -58.55091 11449 ft 283 kts 254°
2026-04-29 17:51 -27.08076 -58.57163 11032 ft 281 kts 254°
2026-04-29 17:52 -27.08664 -58.59253 10608 ft 280 kts 254°
2026-04-29 17:52 -27.09053 -58.60638 10326 ft 279 kts 254°
2026-04-29 17:52 -27.09827 -58.63388 9763 ft 277 kts 254°
2026-04-29 17:52 -27.10402 -58.65438 9338 ft 276 kts 254°
2026-04-29 17:53 -27.10972 -58.67470 8912 ft 272 kts 254°
2026-04-29 17:53 -27.11538 -58.69494 8482 ft 269 kts 254°
2026-04-29 17:53 -27.12090 -58.71464 8059 ft 267 kts 254°
2026-04-29 17:53 -27.12645 -58.73444 7633 ft 265 kts 254°
2026-04-29 17:54 -27.13200 -58.75425 7204 ft 264 kts 254°
2026-04-29 17:54 -27.13749 -58.77387 6777 ft 263 kts 254°
2026-04-29 17:54 -27.14297 -58.79346 6351 ft 262 kts 254°
2026-04-29 17:54 -27.14834 -58.81267 5930 ft 261 kts 254°
2026-04-29 17:55 -27.15376 -58.83206 5498 ft 254 kts 254°
2026-04-29 17:55 -27.15889 -58.85045 5076 ft 246 kts 254°
2026-04-29 17:55 -27.16393 -58.86852 4649 ft 241 kts 253°
2026-04-29 17:55 -27.16891 -58.88637 4220 ft 235 kts 253°
2026-04-29 17:56 -27.17370 -58.90355 3797 ft 231 kts 253°
2026-04-29 17:56 -27.17848 -58.92074 3369 ft 228 kts 253°
2026-04-29 17:56 -27.18584 -58.93614 3040 ft 222 kts 231°
2026-04-29 17:56 -27.19748 -58.94670 2993 ft 208 kts 210°
2026-04-29 17:57 -27.21017 -58.95341 2842 ft 202 kts 204°
2026-04-29 17:57 -27.22314 -58.95917 2642 ft 199 kts 202°
2026-04-29 17:57 -27.23612 -58.96473 2439 ft 197 kts 202°
2026-04-29 17:57 -27.24455 -58.96833 2308 ft 196 kts 201°
2026-04-29 17:58 -27.26135 -58.97549 2047 ft 193 kts 201°
2026-04-29 17:58 -27.27366 -58.98074 1995 ft 184 kts 201°
2026-04-29 17:58 -27.28525 -58.98581 2005 ft 172 kts 201°
2026-04-29 17:58 -27.29545 -58.99010 1999 ft 144 kts 201°
2026-04-29 17:59 -27.30391 -58.99368 1981 ft 119 kts 202°
2026-04-29 17:59 -27.31113 -58.99674 1981 ft 103 kts 202°
2026-04-29 17:59 -27.31745 -58.99944 1982 ft 92 kts 202°
2026-04-29 17:59 -27.32350 -59.00204 1996 ft 97 kts 202°
2026-04-29 18:00 -27.33001 -59.00482 1997 ft 102 kts 202°
2026-04-29 18:00 -27.33687 -59.00775 1996 ft 106 kts 202°
2026-04-29 18:00 -27.34382 -59.01072 1995 ft 109 kts 201°
2026-04-29 18:00 -27.35107 -59.01381 1989 ft 112 kts 201°
2026-04-29 18:01 -27.35865 -59.01705 1859 ft 123 kts 201°
2026-04-29 18:01 -27.36685 -59.02055 1703 ft 126 kts 201°
2026-04-29 18:01 -27.37505 -59.02406 1539 ft 127 kts 201°
2026-04-29 18:01 -27.38329 -59.02758 1372 ft 127 kts 201°
2026-04-29 18:02 -27.39168 -59.03117 1199 ft 128 kts 201°
2026-04-29 18:02 -27.39994 -59.03469 1028 ft 128 kts 201°
2026-04-29 18:02 -27.40774 -59.03802 886 ft 108 kts 200°
2026-04-29 18:02 -27.41401 -59.04046 826 ft 90 kts 199°
2026-04-29 18:03 -27.41990 -59.04277 673 ft 89 kts 200°
2026-04-29 18:03 -27.42548 -59.04522 542 ft 85 kts 202°
2026-04-29 18:03 -27.43076 -59.04767 412 ft 82 kts 201°
2026-04-29 18:03 -27.43581 -59.04982 293 ft 77 kts 200°
2026-04-29 18:04 -27.44064 -59.05201 182 ft 68 kts 199°
2026-04-29 18:04 -27.44458 -59.05374 176 ft 52 kts 202°
2026-04-29 18:04 -27.44678 -59.05479 175 ft 20 kts 200°
2026-04-29 18:04 -27.44772 -59.05440 175 ft 15 kts 78°
2026-04-29 18:05 -27.44723 -59.05348 175 ft 12 kts 56°
2026-04-29 18:05 -27.44681 -59.05275 175 ft 9 kts 53°
2026-04-29 18:05 -27.44646 -59.05218 175 ft 7 kts 57°
2026-04-29 18:05 -27.44618 -59.05170 175 ft 7 kts 56°
2026-04-29 18:06 -27.44589 -59.05120 175 ft 7 kts 58°
2026-04-29 18:06 -27.44562 -59.05067 175 ft 7 kts 63°
2026-04-29 18:06 -27.44537 -59.05010 175 ft 7 kts 63°
2026-04-29 18:06 -27.44519 -59.04972 175 ft 3 kts 49°
2026-04-29 18:07 -27.44512 -59.04958 175 ft 3 kts 85°
2026-04-29 18:07 -27.44526 -59.04931 175 ft 1 kts 122°
2026-04-29 18:07 -27.44533 -59.04922 175 ft 0 kts 126°